Location: Oshawa
(43.9000°N, 78.8670°W)
Time: 22:32:01
(UTC-04:00)

Explorer 7 - Visible Passes

Search period start: 26 May 2017 00:00
Search period end: 05 June 2017 00:00
Orbit: 486 x 684 km, 50.3° (Epoch: 26 May)

Date Brightness Start Highest point End Pass type
(mag) Time Alt. Az. Time Alt. Az. Time Alt. Az.
01 Jun 9.2 04:33:07 10° SSE 04:35:22 14° SE 04:37:42 10° E visible
02 Jun 8.6 04:37:40 10° S 04:40:56 23° SE 04:44:23 10° E visible
03 Jun 7.9 04:42:49 10° SSW 04:46:35 37° SE 04:50:34 10° ENE visible
04 Jun 7.2 04:48:19 10° SW 04:52:18 58° SE 04:56:35 10° ENE visible
